Location: Aldenham
(51.6667°N, 0.3500°W)
Time: 07:07:36
(UTC+00:00)

ARIANE 5 R/B - Pass Details

Date: 18 November 2025
Orbit: 747 x 792 km, 98.8° (Epoch: 10 December)

Event Time Altitude Azimuth Distance (km) Brightness Sun altitude
Rises 17:44:07 0° 174° (S) 3,179 5.8 -14.7°
Reaches altitude 10° 17:46:26 10° 178° (S) 2,260 5.1 -15.1°
Maximum altitude 17:51:19 59° 258° (WSW) 865 3.1 -15.8°
Drops below altitude 10° 17:56:18 10° 338° (NNW) 2,288 5.1 -16.6°
Sets 17:58:39 0° 342° (NNW) 3,223 5.8 -16.9°
